FW9017 Weather Reports


time (UTC)temp
C
wind
direction
speed
KPH
gust
KPH
rain 1hr
cm
rain 24hr
cm
rain mn
cm
humidity
%
barometer
mb
20260508080055 5 0 0.0 1.6 0.00 0.08 0.00 89 1010.9
20260508074556 5 0 0.0 3.2 0.00 0.23 0.00 89 1010.8
20260508073058 4 315 0.0 1.6 0.00 0.23 0.00 89 1010.8
20260508071555 4 0 0.0 3.2 0.00 0.23 0.00 90 1010.6
20260508070057 4 0 0.0 1.6 0.00 0.23 0.00 92 1010.6
20260508064600 3 0 0.0 1.6 0.00 0.28 0.00 92 1010.3
20260508063057 3 0 1.6 3.2 0.00 0.28 0.00 93 1010.0
20260508061606 3 0 0.0 1.6 0.00 0.28 0.00 93 1009.5
20260508060055 3 0 0.0 0.0 0.00 0.28 0.00 92 1009.6
20260508054640 3 315 0.0 1.6 0.00 0.28 0.00 91 1009.6
20260508053056 3 0 0.0 1.6 0.00 0.28 0.00 91 1009.6
20260508051559 3 0 0.0 0.0 0.00 0.28 0.00 90 1009.9
20260508050059 3 0 0.0 1.6 0.00 0.28 0.00 89 1009.8
20260508044601 3 0 0.0 1.6 0.00 0.28 0.00 89 1009.8
20260508043055 4 0 0.0 1.6 0.00 0.28 0.00 89 1009.9
20260508041602 4 0 0.0 0.0 0.00 0.28 0.00 87 1009.9
20260508040100 5 0 0.0 0.0 0.00 0.28 0.00 87 1010.0
20260508034603 5 315 0.0 0.0 0.00 0.28 0.28 86 1010.0
20260508033053 5 0 0.0 0.0 0.00 0.28 0.28 82 1010.0
20260508031603 5 0 0.0 1.6 0.00 0.28 0.28 81 1010.2
20260508030112 6 0 0.0 0.0 0.00 0.28 0.28 80 1010.0
20260508024608 6 0 0.0 1.6 0.00 0.41 0.28 78 1010.0
20260508023103 7 0 0.0 0.0 0.00 0.41 0.28 76 1010.1
20260508021616 7 0 0.0 1.6 0.00 0.41 0.28 73 1010.1
20260508020055 7 0 0.0 1.6 0.00 0.41 0.28 71 1010.0
20260508014559 8 0 0.0 3.2 0.00 0.41 0.28 70 1009.9
20260508013108 9 0 0.0 0.0 0.00 0.41 0.28 62 1009.7
20260508011600 10 0 0.0 3.2 0.00 0.41 0.28 59 1009.6
20260508010055 11 0 0.0 1.6 0.00 0.41 0.28 55 1009.5
20260508004559 11 0 0.0 4.8 0.00 0.41 0.28 51 1009.3
20260508003104 12 0 1.6 6.4 0.00 0.41 0.28 48 1009.0
20260508001556 12 344 1.6 6.4 0.00 0.41 0.28 47 1009.0
20260508000054 13 294 3.2 12.9 0.00 0.41 0.28 45 1008.6
20260507234556 13 360 8.0 17.7 0.00 0.41 0.28 44 1008.6
20260507233055 13 348 6.4 14.5 0.00 0.41 0.28 43 1008.4
20260507231559 13 323 3.2 12.9 0.00 0.41 0.28 43 1008.2
20260507230057 14 33 4.8 17.7 0.00 0.41 0.28 43 1008.3
20260507224604 14 290 4.8 17.7 0.00 0.41 0.28 41 1008.2
20260507223100 15 281 6.4 14.5 0.00 0.41 0.28 41 1008.1
20260507221555 15 332 4.8 14.5 0.00 0.41 0.28 41 1008.0
20260507220058 15 232 9.7 22.5 0.00 0.41 0.28 40 1008.0
20260507214555 15 348 6.4 12.9 0.00 0.41 0.28 41 1007.9
20260507213057 15 5 6.4 16.1 0.00 0.41 0.28 39 1007.9
20260507211554 15 323 8.0 20.9 0.00 0.41 0.28 39 1007.8
20260507210119 15 360 8.0 22.5 0.00 0.41 0.28 40 1007.7
20260507204600 15 290 9.7 17.7 0.00 0.51 0.28 41 1007.8
20260507203059 15 26 6.4 16.1 0.00 0.51 0.28 39 1007.7
20260507201554 16 328 9.7 19.3 0.00 0.51 0.28 38 1007.7
20260507200106 16 5 11.3 20.9 0.00 0.51 0.28 39 1007.8
20260507194557 16 9 6.4 19.3 0.00 0.64 0.28 39 1008.0
20260507193113 16 55 9.7 22.5 0.00 0.64 0.28 38 1008.2
20260507191600 16 323 6.4 20.9 0.00 0.64 0.28 38 1008.3
20260507184559 16 5 8.0 22.5 0.00 0.69 0.28 43 1008.5
20260507183105 15 11 9.7 27.4 0.00 0.69 0.28 39 1008.7
20260507181558 15 170 6.4 20.9 0.00 0.69 0.28 38 1008.7
20260507180059 15 337 6.4 19.3 0.00 0.69 0.28 38 1008.8
20260507174601 15 341 9.7 30.6 0.00 0.79 0.28 34 1009.0
20260507173132 16 321 4.8 16.1 0.00 0.79 0.28 37 1009.2
20260507171603 15 289 4.8 19.3 0.00 0.79 0.28 42 1009.4
20260507170056 15 254 8.0 20.9 0.00 0.79 0.28 39 1009.5
20260507164606 15 267 3.2 16.1 0.00 0.79 0.28 40 1009.4
20260507163056 15 317 8.0 20.9 0.00 0.79 0.28 41 1009.6
20260507161613 14 191 4.8 14.5 0.00 0.79 0.28 42 1009.7
20260507160111 14 34 3.2 25.7 0.00 0.79 0.28 43 1010.0
20260507154556 13 296 11.3 30.6 0.00 0.79 0.28 42 1010.2
20260507153101 13 277 11.3 24.1 0.00 0.79 0.28 40 1010.5
20260507151557 13 15 9.7 22.5 0.00 0.79 0.28 43 1010.6
20260507150056 12 309 11.3 24.1 0.00 0.79 0.28 42 1010.4
20260507144600 12 250 9.7 19.3 0.00 0.79 0.28 46 1010.4
20260507143101 12 330 8.0 20.9 0.00 0.79 0.28 47 1010.6
20260507141615 12 34 8.0 24.1 0.00 0.79 0.28 50 1010.7
20260507140111 12 22 8.0 19.3 0.00 0.79 0.28 51 1010.8
20260507134606 11 360 6.4 22.5 0.00 0.79 0.28 54 1010.6
20260507133056 11 16 8.0 20.9 0.00 0.79 0.28 54 1010.7
20260507131601 11 355 6.4 20.9 0.00 0.79 0.28 58 1010.6
20260507130108 11 336 4.8 12.9 0.00 0.79 0.28 61 1010.6
20260507124604 10 187 6.4 22.5 0.00 0.79 0.28 61 1010.8
20260507123102 10 355 4.8 17.7 0.00 0.79 0.28 63 1010.8
20260507121601 9 337 6.4 24.1 0.00 0.79 0.28 67 1010.7
20260507120113 9 272 4.8 14.5 0.00 0.79 0.28 81 1010.6
20260507114609 8 0 4.8 14.5 0.00 0.79 0.28 83 1010.4
20260507113056 8 279 3.2 12.9 0.00 0.79 0.28 88 1010.2
20260507111600 8 355 1.6 6.4 0.00 0.79 0.28 94 1010.2
20260507110056 8 0 1.6 6.4 0.00 0.79 0.28 95 1010.0
20260507104556 8 0 0.0 3.2 0.00 0.79 0.28 96 1009.9
20260507103054 8 0 0.0 3.2 0.00 0.79 0.28 95 1009.7
20260507101616 8 10 0.0 8.0 0.00 0.79 0.28 95 1009.5
20260507100053 8 14 0.0 8.0 0.03 0.79 0.28 95 1009.1
20260507094557 8 0 0.0 4.8 0.03 0.79 0.28 96 1009.1
20260507093059 8 0 0.0 1.6 0.05 0.79 0.28 96 1009.2
20260507091556 8 0 0.0 4.8 0.05 0.79 0.28 96 1009.0
20260507084555 8 0 0.0 1.6 0.10 0.76 0.25 96 1008.9
20260507083056 8 0 0.0 3.2 0.10 0.74 0.23 96 1009.2
20260507081556 9 47 0.0 4.8 0.13 0.74 0.23 95 1009.1